Regional Weather Roundup
Issued by NWS Sterling, VA

Home | Current Version | Previous Version | Text Only | Print | Product List | Glossary On
Versions: 1 2 3 4 5 6 7 8 9 10 11 12 13 14 15 16 17 18 19 20 21 22 23 24 25 26 27 28
000
ASUS41 KLWX 250610
RWRLWX

REGIONAL WEATHER ROUNDUP
NATIONAL WEATHER SERVICE BALTIMORE MD/WASHINGTON DC
200 AM EDT FRI APR 25 2014

Note: "FAIR" indicates few or no clouds below 12,000 feet
with no significant weather and/or obstructions to visibility.
 TC=TEMPERATURE CELSIUS

 * =Non NWS site. Station does not report precipitation (e.g. rain,
    snow, etc.), thunder, or fog.

DCZ001-MDZ009-015-VAZ040>042-051-053>054-250700-
WASHINGTON METRO

CITY           SKY/WX    TMP DP  RH WIND       PRES   REMARKS
WASHINGTON NAT CLOUDY    53  35  50 CALM      30.01F
DULLES         FAIR      40  32  73 S3        30.00F
ANDREWS AFB    FAIR      44  31  59 CALM      30.00F
FT BELVOIR     FAIR      42  34  72 CALM      30.02F
QUANTICO       FAIR      48  36  63 NW6       30.02F
COLLEGE PARK*  FAIR      43  36  75 CALM      30.00F
LEESBURG*      FAIR      43  36  75 CALM      30.01F
MANASSAS*      FAIR      43  39  87 CALM      30.01F
GAITHERSBURG*  FAIR      45  27  49 CALM      30.02F

$$

MDZ006>007-011-014-250700-
BALTIMORE METRO

CITY           SKY/WX    TMP DP  RH WIND       PRES   REMARKS
BWI AIRPORT    FAIR      45  32  60 CALM      30.01F
MD SCIENCE CTR   N/A     52  31  44 MISG      30.02F
MARTIN STATE   FAIR      45  37  76 CALM      30.03F
ANNAPOLIS      FAIR      49  41  74 CALM      30.00F
FORT MEADE*    FAIR      36  32  87 CALM      30.03F

$$

MDZ012-015-019>023-250700-
MARYLAND EASTERN SHORE

CITY           SKY/WX    TMP DP  RH WIND       PRES   REMARKS
OCEAN CITY     FAIR      40  33  76 CALM      30.02F
SALISBURY      FAIR      42  34  73 CALM      30.02F
BAY BRIDGE AP* FAIR      46  41  81 CALM      30.01F
CAMBRIDGE*     FAIR      43  36  75 CALM      30.01F
EASTON*        FAIR      47  37  68 CALM      30.04F

$$

MDZ017>025-250700-
SOUTHERN MARYLAND

CITY           SKY/WX    TMP DP  RH WIND       PRES   REMARKS
PATUXENT RIVER FAIR      42  33  70 CALM      30.01F
ST INIGOES     FAIR      42  36  79 CALM      30.01F
LEONARDTOWN*   FAIR      45  30  57 CALM      30.03F

$$

MDZ003>005-250700-
NORTH CENTRAL MARYLAND

CITY           SKY/WX    TMP DP  RH WIND       PRES   REMARKS
FREDERICK*     FAIR      39  37  93 CALM      30.03F
HAGERSTOWN APT FAIR      48  21  34 NE7       29.98F
WESTMINSTER*   FAIR      46  25  42 E5        30.01F

$$

MDZ501>502-250700-
WESTERN MARYLAND

CITY           SKY/WX    TMP DP  RH WIND       PRES   REMARKS
OAKLAND*       MOCLDY    45   5  19 SE15      29.94S
CUMBERLAND*    FAIR      50  28  43 CALM      30.00F

$$

VAZ025>031-250700-
SHENANDOAH VALLEY

CITY           SKY/WX    TMP DP  RH WIND       PRES   REMARKS
WINCHESTER*    FAIR      45  30  57 CALM      29.98F
STAUNTON*      FAIR      42  36  79 CALM      29.99F

$$

WVZ021-048>050-054>055-250700-
EASTERN WEST VIRGINIA PANHANDLE

CITY           SKY/WX    TMP DP  RH WIND       PRES   REMARKS
MARTINSBURG    FAIR      45  29  53 CALM      29.99F
PETERSBURG*    FAIR      44  39  82 CALM      29.97S

$$

VAZ036>039-050-250700-
CENTRAL FOOTHILLS

CITY           SKY/WX    TMP DP  RH WIND       PRES   REMARKS
CHARLOTTESVILL FAIR      49  29  46 N3        30.00F
CULPEPER*      FAIR      45  36  70 CALM      30.01F

$$

VAZ055>057-250700-
NORTH AND CENTRAL PIEDMONT

CITY           SKY/WX    TMP DP  RH WIND       PRES   REMARKS
FREDERICKSBRG* FAIR      46  35  66 CALM      30.00F
STAFFORD*      FAIR      41  35  81 CALM      30.05F

$$

NCZ024-NYZ072-PAZ021-071-VAZ022-071-250700-
OTHER REGIONAL OBSERVATIONS

CITY           SKY/WX    TMP DP  RH WIND       PRES   REMARKS
NEW YORK CITY  FAIR      49  17  28 VRB5      30.04F
PHILADELPHIA   FAIR      50  12  21 N10       30.03F
PITTSBURGH     CLOUDY    49  22  34 E7        29.89F
ROANOKE        FAIR      53  37  54 CALM      29.98S
RICHMOND       MOCLDY    48  36  63 E5        30.00F
RALEIGH        FAIR      55  41  59 SE3       29.99F

$$

ANZ530>537-250700-
MARINE OBSERVATIONS

STATION/POSITION TIME  TEMP    WIND        PRES
                       AIR SEA DIR/SP/G
                 (UTC) (F)     (DEG/KT/KT) (MB)
THOMAS PT LIGHT  0600   54 54  120/  3/  4 1016.5F
BALT KEY BRIDGE  0600   53      20/  5/  5 1016.6F
COVE POINT       0600   54     200/  7/  7 1016.4F
LEWISETTA        0600   52 57  210/  4/  5 1016.1F
SOLOMONS ISLAND  0600      56                N/A
PINEY POINT      0600          150/  5/  5   N/A

$$




USA.gov is the U.S. government's official web portal to all federal, state and local government web resources and services.